Home   Weather   Lund   Past weeks

Flag for Sweden Past Weather in Lund, Sweden — Yesterday and Last 2 Weeks

Now
43 °F

Clear.


Feels Like: 35 °F
Forecast: 35 / 40 °F
Wind: 16 mph from South

Location: Malmo / Sturup

Current Time: Feb 28, 2017 at 4:40:59 am

Latest Report: Feb 28, 2017 at 3:50 am


Visibility: 10 mi

Pressure: 29.15 "Hg

Humidity: 87%

Dew Point: 39 °F

Location of LundLocation

Past Weather in Lund — Graph

°F

Lund Temperature Yesterday

Maximum temperature yesterday: 46 °F (at 12:20 pm)
Minimum temperature yesterday: 43 °F (at 12:20 am)
Average temperature yesterday: 45 °F

High & Low Weather Summary for the Past Weeks

 TemperatureHumidityPressure
High46 °F (Feb 22, 1:50 pm)100% (Feb 13, 9:20 pm)30.72 "Hg (Feb 13, 9:20 pm)
Low18 °F (Feb 14, 4:50 am)37% (Feb 15, 12:20 pm)28.88 "Hg (Feb 23, 9:50 pm)
Average37 °F89%29.85 "Hg
* Reported Feb 13 3:20 am — Feb 28 3:20 am, Lund, Weather by CustomWeather, © 2017

Note: Actual official high and low records may vary slightly from our data, if they occured in-between our weather recording intervals... More about our weather records

Advertising

Lund Weather History for the Previous 24 Hours

Scroll right to see more
 ConditionsComfort  
Time TempWeatherWind HumidityBarometerVisibility
3:20 am
Tue, Feb 28
43 °FClear.14 mph81%29.12 "Hg10 mi
2:50 am43 °FClear.15 mph81%29.18 "Hg10 mi
2:20 am43 °FPassing clouds.15 mph81%29.18 "HgN/A
1:50 am41 °FClear.13 mph87%29.18 "Hg10 mi
1:20 am41 °FClear.13 mph87%29.18 "Hg10 mi
12:50 am41 °FClear.16 mph87%29.21 "Hg10 mi
12:20 am43 °FOvercast.16 mph81%29.24 "HgN/A
11:50 pm
Mon, Feb 27
43 °FOvercast.17 mph81%29.27 "HgN/A
11:20 pm43 °FOvercast.20 mph81%29.27 "HgN/A
10:50 pm45 °FOvercast.16 mph81%29.27 "HgN/A
10:20 pm45 °FOvercast.14 mph76%29.30 "HgN/A
9:50 pm46 °FOvercast.14 mph76%29.33 "HgN/A
9:20 pm46 °FOvercast.15 mph76%29.33 "HgN/A
8:50 pm46 °FOvercast.16 mph76%29.36 "HgN/A
8:20 pm46 °FMostly cloudy.18 mph76%29.36 "HgN/A
7:50 pm45 °FPartly cloudy.16 mph81%29.39 "HgN/A
7:20 pm46 °FClear.15 mph82%29.39 "Hg10 mi
6:20 pm46 °FClear.13 mph82%29.42 "Hg10 mi
5:50 pm46 °FClear.13 mph82%29.45 "Hg10 mi
5:20 pm46 °FSunny.12 mph87%29.45 "Hg10 mi
4:50 pm46 °FSunny.13 mph87%29.47 "Hg10 mi
4:20 pm46 °FSunny.12 mph87%29.47 "Hg10 mi
3:50 pm46 °FSunny.9 mph87%29.47 "Hg10 mi
3:20 pm46 °FSunny.12 mph87%29.50 "Hg10 mi
2:50 pm46 °FPartly sunny.13 mph87%29.50 "HgN/A
2:20 pm46 °FBroken clouds.13 mph87%29.50 "HgN/A
1:50 pm46 °FPartly sunny.12 mph87%29.53 "HgN/A
1:20 pm46 °FPartly sunny.12 mph87%29.53 "HgN/A
12:50 pm46 °FFog.15 mph93%29.56 "Hg5 mi
12:20 pm46 °FPartly sunny.15 mph87%29.56 "HgN/A
11:50 am45 °FLow clouds.14 mph93%29.56 "HgN/A
11:20 am45 °FFog.14 mph100%29.59 "Hg3 mi
10:50 am45 °FFog.16 mph93%29.59 "Hg2 mi
10:20 am45 °FFog.16 mph93%29.59 "Hg2 mi
9:50 am45 °FFog.15 mph93%29.59 "Hg4 mi
9:20 am45 °FFog.16 mph93%29.59 "Hg4 mi
8:50 am45 °FFog.15 mph87%29.59 "Hg5 mi
8:20 am45 °FFog.14 mph93%29.59 "Hg4 mi
7:50 am43 °FFog.15 mph100%29.59 "Hg3 mi
7:20 am45 °FFog.17 mph93%29.59 "Hg2 mi
6:50 am45 °FFog.15 mph93%29.59 "Hg3 mi
6:20 am43 °FFog.16 mph100%29.59 "Hg3 mi
5:50 am45 °FDrizzle. Low clouds.15 mph93%29.59 "Hg2 mi
5:20 am43 °FFog.16 mph100%29.59 "Hg2 mi
4:50 am43 °FFog.17 mph93%29.59 "Hg3 mi
4:20 am43 °FFog.14 mph100%29.62 "Hg2 mi
Weather by CustomWeather, © 2017

See weather overviewHow to use our weather pages